WE8L Weather Reports


time (UTC)temp
F
wind
direction
speed
knots
gust
knots
rain 1hr
in
rain 24hr
in
rain mn
in
humidity
%
barometer
mb
20260507144846 53 272 0.9 4.3 0.00 0.00 0.00 45 1018.1
20260507144343 53 68 0.9 4.3 0.00 0.00 0.00 46 1018.2
20260507143839 53 289 2.6 4.3 0.00 0.00 0.00 45 1018.2
20260507143337 52 264 0.9 4.3 0.00 0.00 0.00 46 1018.0
20260507142833 53 276 0.9 2.6 0.00 0.00 0.00 46 1018.1
20260507142329 53 301 0.9 1.7 0.00 0.00 0.00 46 1018.1
20260507141826 53 34 0.9 1.7 0.00 0.00 0.00 48 1018.0
20260507141323 53 52 2.6 4.3 0.00 0.00 0.00 43 1018.2
20260507140819 52 307 0.0 2.6 0.00 0.00 0.00 46 1018.1
20260507140316 52 21 0.0 1.7 0.00 0.00 0.00 50 1018.2
20260507135814 52 279 0.9 1.7 0.00 0.00 0.00 47 1018.2
20260507135311 51 77 0.0 1.7 0.00 0.00 0.00 47 1018.2
20260507134808 51 14 1.7 5.2 0.00 0.00 0.00 49 1018.2
20260507134304 51 33 0.0 1.7 0.00 0.00 0.00 49 1018.0
20260507133759 51 123 0.0 0.9 0.00 0.00 0.00 55 1018.0
20260507133256 50 37 0.0 1.7 0.00 0.00 0.00 50 1018.0
20260507132754 50 306 0.9 1.7 0.00 0.00 0.00 57 1018.0
20260507132250 50 25 0.0 0.9 0.00 0.00 0.00 66 1018.0
20260507131747 50 46 0.0 0.0 0.00 0.00 0.00 65 1018.3
20260507131244 49 35 0.9 1.7 0.00 0.00 0.00 65 1018.2
20260507130741 49 23 0.0 0.9 0.00 0.00 0.00 66 1018.0
20260507130239 49 355 0.0 0.9 0.00 0.00 0.00 65 1018.4
20260507125737 49 27 0.9 0.9 0.00 0.00 0.00 66 1018.0
20260507125235 49 355 0.0 0.9 0.00 0.00 0.00 66 1018.1
20260507124731 48 31 0.0 0.9 0.00 0.00 0.00 70 1018.1
20260507124228 47 318 0.0 0.9 0.00 0.00 0.00 73 1018.2
20260507123726 46 318 0.0 0.9 0.00 0.00 0.00 76 1018.2
20260507123224 45 320 0.0 0.0 0.00 0.00 0.00 77 1018.2
20260507122718 45 320 0.0 0.9 0.00 0.00 0.00 79 1018.3
20260507122215 44 320 0.0 0.0 0.00 0.00 0.00 81 1018.2
20260507121711 43 320 0.0 0.0 0.00 0.00 0.00 84 1018.3
20260507121207 42 321 0.0 0.9 0.00 0.00 0.00 86 1018.1
20260507120703 42 320 0.0 0.9 0.00 0.00 0.00 89 1018.1
20260507120200 41 322 0.0 0.0 0.00 0.00 0.00 92 1018.2
20260507115656 41 322 0.0 0.0 0.00 0.00 0.00 95 1018.1
20260507115152 41 322 0.0 0.0 0.00 0.00 0.00 96 1018.2
20260507114648 41 323 0.0 0.0 0.00 0.00 0.00 96 1018.3
20260507114145 40 323 0.0 0.0 0.00 0.00 0.00 96 1018.2
20260507113643 40 323 0.0 0.0 0.00 0.00 0.00 96 1018.1
20260507113139 39 323 0.0 0.0 0.00 0.00 0.00 96 1018.2
20260507112637 39 323 0.0 0.0 0.00 0.00 0.00 96 1018.3
20260507112133 39 323 0.0 0.0 0.00 0.00 0.00 96 1018.0
20260507111631 39 323 0.0 0.0 0.00 0.00 0.00 96 1018.1
20260507111127 39 323 0.0 0.0 0.00 0.00 0.00 96 1017.8
20260507110624 39 322 0.0 0.0 0.00 0.00 0.00 96 1018.0
20260507110120 38 322 0.0 0.0 0.00 0.00 0.00 96 1017.9
20260507105617 38 321 0.0 0.0 0.00 0.00 0.00 96 1017.8
20260507105113 38 321 0.0 0.0 0.00 0.00 0.00 96 1017.6
20260507104611 39 321 0.0 0.0 0.00 0.00 0.00 96 1017.7
20260507104107 39 321 0.0 0.0 0.00 0.00 0.00 96 1017.4
20260507103603 39 321 0.0 0.0 0.00 0.00 0.00 96 1017.5
20260507103100 39 321 0.0 0.0 0.00 0.00 0.00 96 1017.5
20260507102557 39 321 0.0 0.0 0.00 0.00 0.00 96 1017.5
20260507102053 39 321 0.0 0.0 0.00 0.00 0.00 96 1017.5
20260507101548 39 321 0.0 0.0 0.00 0.00 0.00 96 1017.5
20260507101045 39 321 0.0 0.0 0.00 0.00 0.00 96 1017.5
20260507100542 39 321 0.0 0.0 0.00 0.00 0.00 96 1017.3
20260507100040 39 321 0.0 0.0 0.00 0.00 0.00 96 1017.5
20260507095538 39 321 0.0 0.0 0.00 0.00 0.00 96 1017.6
20260507095034 40 321 0.0 0.0 0.00 0.00 0.00 96 1017.7
20260507094531 40 321 0.0 0.0 0.00 0.00 0.00 96 1017.7
20260507094028 40 321 0.0 0.0 0.00 0.00 0.00 95 1017.6
20260507093525 40 321 0.0 0.0 0.00 0.00 0.00 95 1017.6
20260507093024 40 321 0.0 0.0 0.00 0.00 0.00 95 1017.7
20260507092520 40 321 0.0 0.0 0.00 0.00 0.00 95 1017.6
20260507092017 40 321 0.0 0.0 0.00 0.00 0.00 95 1017.3
20260507091513 40 321 0.0 0.0 0.00 0.00 0.00 95 1017.4
20260507091009 40 321 0.0 0.0 0.00 0.00 0.00 95 1017.2
20260507090505 41 321 0.0 0.0 0.00 0.00 0.00 95 1017.3
20260507090002 41 321 0.0 0.0 0.00 0.00 0.00 95 1017.4
20260507085459 41 322 0.0 0.0 0.00 0.00 0.00 95 1017.3
20260507084956 41 322 0.0 0.0 0.00 0.00 0.00 95 1017.2
20260507084453 41 322 0.0 0.0 0.00 0.00 0.00 95 1017.1
20260507083950 41 322 0.0 0.0 0.00 0.00 0.00 95 1017.2
20260507083446 41 322 0.0 0.0 0.00 0.00 0.00 95 1017.1
20260507082943 41 322 0.0 0.0 0.00 0.00 0.00 95 1017.0
20260507082439 41 322 0.0 0.0 0.00 0.00 0.00 95 1017.2
20260507081935 41 322 0.0 0.0 0.00 0.00 0.00 95 1017.2
20260507081432 41 322 0.0 0.0 0.00 0.00 0.00 95 1017.2
20260507080929 41 322 0.0 0.0 0.00 0.00 0.00 95 1017.2
20260507080425 42 322 0.0 0.0 0.00 0.00 0.00 94 1017.2
20260507075920 42 322 0.0 0.0 0.00 0.00 0.00 94 1017.1
20260507075416 42 322 0.0 0.0 0.00 0.00 0.00 94 1017.1
20260507074913 42 322 0.0 0.0 0.00 0.00 0.00 94 1017.1
20260507074410 42 322 0.0 0.0 0.00 0.00 0.00 94 1017.1
20260507073908 42 322 0.0 0.0 0.00 0.00 0.00 94 1016.9
20260507073404 42 322 0.0 0.0 0.00 0.00 0.00 94 1017.4
20260507072901 42 322 0.0 0.0 0.00 0.00 0.00 94 1016.9
20260507072358 42 322 0.0 0.0 0.00 0.00 0.00 94 1016.7
20260507071856 42 322 0.0 0.0 0.00 0.00 0.00 94 1016.7
20260507071353 42 322 0.0 0.0 0.00 0.00 0.00 93 1016.7
20260507070849 42 322 0.0 0.0 0.00 0.00 0.00 93 1016.9
20260507070347 42 322 0.0 0.0 0.00 0.00 0.00 93 1017.1
20260507065843 42 322 0.0 0.0 0.00 0.00 0.00 93 1017.1
20260507065340 42 322 0.0 0.0 0.00 0.00 0.00 93 1017.0
20260507064837 43 322 0.0 0.0 0.00 0.00 0.00 93 1017.0
20260507064336 43 322 0.0 0.0 0.00 0.00 0.00 93 1017.3
20260507063833 43 322 0.0 0.0 0.00 0.00 0.00 92 1017.4
20260507063330 43 322 0.0 0.0 0.00 0.00 0.00 92 1017.3
20260507062826 43 322 0.0 0.0 0.00 0.00 0.00 92 1017.3
20260507062323 44 322 0.0 0.0 0.00 0.00 0.00 92 1017.4
20260507061822 44 322 0.0 0.0 0.00 0.00 0.00 92 1017.2
20260507061319 44 322 0.0 0.0 0.00 0.00 0.00 92 1017.0
20260507060818 44 322 0.0 0.0 0.00 0.00 0.00 92 1017.2
20260507060314 44 322 0.0 0.0 0.00 0.00 0.00 91 1017.2
20260507055810 44 322 0.0 0.0 0.00 0.00 0.00 91 1017.3
20260507055306 44 322 0.0 0.0 0.00 0.00 0.00 91 1017.2
20260507054802 44 322 0.0 0.0 0.00 0.00 0.00 91 1017.4
20260507054259 44 322 0.0 0.0 0.00 0.00 0.00 91 1017.2
20260507053756 44 323 0.0 0.0 0.00 0.00 0.00 91 1017.3
20260507053254 44 323 0.0 0.0 0.00 0.00 0.00 91 1017.4
20260507052752 44 323 0.0 0.0 0.00 0.00 0.00 90 1017.3
20260507052248 44 323 0.0 0.0 0.00 0.00 0.00 90 1017.3
20260507051747 44 323 0.0 0.0 0.00 0.00 0.00 90 1017.2
20260507051243 44 323 0.0 0.0 0.00 0.00 0.00 90 1017.1
20260507050740 44 323 0.0 0.0 0.00 0.00 0.00 90 1017.3
20260507050237 45 323 0.0 0.0 0.00 0.00 0.00 90 1017.3
20260507045734 45 323 0.0 0.0 0.00 0.00 0.00 90 1017.5
20260507045230 45 323 0.0 0.0 0.00 0.00 0.00 90 1017.5
20260507044727 45 323 0.0 0.0 0.00 0.00 0.00 90 1017.4
20260507044223 45 323 0.0 0.0 0.00 0.00 0.00 89 1017.4
20260507043720 45 323 0.0 0.0 0.00 0.00 0.00 89 1017.4
20260507043217 45 323 0.0 0.0 0.00 0.00 0.00 89 1017.4
20260507042714 45 323 0.0 0.0 0.00 0.00 0.00 89 1017.2
20260507042214 45 323 0.0 0.0 0.00 0.00 0.00 88 1017.3
20260507041712 45 323 0.0 0.0 0.00 0.00 0.00 88 1017.4
20260507041208 45 323 0.0 0.0 0.00 0.00 0.00 88 1017.3
20260507040705 46 323 0.0 0.0 0.00 0.00 0.00 88 1017.2
20260507040201 46 323 0.0 0.0 0.00 0.00 0.00 87 1017.4
20260507035657 46 323 0.0 0.0 0.00 0.65 0.65 87 1017.2
20260507035153 46 323 0.0 0.0 0.00 0.65 0.65 87 1017.1
20260507034650 46 323 0.0 0.0 0.00 0.65 0.65 87 1017.1
20260507034148 46 323 0.0 0.0 0.00 0.65 0.65 86 1017.3
20260507033646 46 323 0.0 0.0 0.00 0.65 0.65 86 1017.2
20260507033143 46 323 0.0 0.0 0.00 0.65 0.65 86 1017.3
20260507032640 46 323 0.0 0.0 0.00 0.65 0.65 86 1017.1
20260507032136 46 323 0.0 0.0 0.00 0.65 0.65 85 1017.1
20260507031633 46 323 0.0 0.0 0.00 0.65 0.65 85 1017.2
20260507031130 46 323 0.0 0.0 0.00 0.65 0.65 85 1017.2
20260507030626 46 323 0.0 0.0 0.00 0.65 0.65 85 1017.2
20260507030124 47 323 0.0 0.0 0.00 0.65 0.65 85 1017.2
20260507025621 47 323 0.0 0.0 0.00 0.65 0.65 85 1017.5
20260507025118 47 323 0.0 0.0 0.00 0.65 0.65 85 1017.4
20260507024616 47 323 0.0 0.0 0.00 0.65 0.65 84 1017.4
20260507024113 48 323 0.0 0.0 0.00 0.65 0.65 84 1017.3
20260507023608 48 323 0.0 0.0 0.00 0.65 0.65 84 1017.4
20260507023106 48 323 0.0 0.0 0.00 0.65 0.65 83 1017.2
20260507022603 48 323 0.0 0.0 0.00 0.65 0.65 83 1017.2
20260507022058 48 323 0.0 0.0 0.00 0.65 0.65 82 1017.3
20260507021555 48 323 0.0 0.0 0.00 0.65 0.65 83 1017.3
20260507021051 49 323 0.0 0.0 0.00 0.65 0.65 83 1017.2
20260507020549 48 323 0.0 0.0 0.00 0.65 0.65 83 1017.1
20260507020045 48 323 0.0 0.0 0.00 0.65 0.65 82 1017.1
20260507015544 49 323 0.0 0.0 0.00 0.65 0.65 82 1017.0
20260507015041 49 323 0.0 0.0 0.00 0.65 0.65 81 1016.9
20260507014537 49 323 0.0 0.0 0.00 0.65 0.65 81 1016.7
20260507014033 49 323 0.0 0.0 0.00 0.65 0.65 81 1016.7
20260507013530 49 323 0.0 0.0 0.00 0.65 0.65 80 1016.7
20260507013027 50 323 0.0 0.0 0.00 0.65 0.65 80 1016.6
20260507012524 50 323 0.0 0.0 0.00 0.65 0.65 80 1016.7
20260507012020 50 323 0.0 0.0 0.00 0.65 0.65 78 1016.4
20260507011518 51 323 0.0 0.0 0.00 0.65 0.65 76 1016.5
20260507011014 51 323 0.0 0.0 0.00 0.65 0.65 75 1016.5
20260507010508 52 323 0.0 0.0 0.00 0.65 0.65 74 1016.7
20260507010005 52 323 0.0 0.0 0.00 0.65 0.65 72 1016.5
20260507005503 53 322 0.0 0.0 0.00 0.65 0.65 70 1016.6
20260507004959 53 322 0.0 0.0 0.00 0.65 0.65 67 1016.5
20260507004456 53 322 0.0 0.0 0.00 0.65 0.65 65 1016.5
20260507003953 54 322 0.0 0.0 0.00 0.65 0.65 64 1016.2
20260507003448 55 322 0.0 0.0 0.00 0.65 0.65 63 1016.4
20260507002943 55 322 0.0 0.0 0.00 0.65 0.65 62 1016.4
20260507002440 55 322 0.0 0.0 0.00 0.65 0.65 60 1016.2
20260507001937 55 322 0.0 0.0 0.00 0.65 0.65 61 1016.1
20260507001433 55 321 0.0 0.0 0.00 0.65 0.65 59 1016.2
20260507000931 55 321 0.0 0.0 0.00 0.65 0.65 60 1016.1
20260507000427 55 320 0.0 0.0 0.00 0.65 0.65 60 1016.2
20260506235922 56 320 0.0 0.0 0.00 0.65 0.65 59 1016.1
20260506235420 56 323 0.0 0.9 0.00 0.65 0.65 58 1016.1
20260506234915 56 334 0.0 0.9 0.00 0.65 0.65 59 1015.8
20260506234414 56 333 0.0 0.9 0.00 0.65 0.65 57 1015.9
20260506233911 56 69 0.0 0.0 0.00 0.65 0.65 60 1016.0
20260506233407 56 319 0.0 0.9 0.00 0.65 0.65 59 1016.0
20260506232904 56 275 0.9 1.7 0.00 0.65 0.65 59 1015.7
20260506232400 56 343 0.9 0.9 0.00 0.65 0.65 59 1016.0
20260506231856 57 295 0.0 1.7 0.00 0.65 0.65 57 1015.5
20260506231354 57 36 0.0 1.7 0.00 0.65 0.65 58 1015.8
20260506230851 57 20 0.0 0.9 0.00 0.65 0.65 59 1015.7
20260506230348 57 268 1.7 1.7 0.00 0.65 0.65 53 1015.7
20260506225844 57 320 0.0 0.9 0.00 0.65 0.65 55 1015.8
20260506225341 58 17 1.7 1.7 0.00 0.65 0.65 52 1015.9
20260506224838 58 112 0.0 0.9 0.00 0.65 0.65 54 1016.0
20260506224336 58 261 0.0 1.7 0.00 0.65 0.65 52 1015.8
20260506223832 57 303 0.0 0.9 0.00 0.65 0.65 55 1015.7
20260506223327 57 332 0.0 0.9 0.00 0.65 0.65 54 1016.0
20260506222824 57 278 1.7 1.7 0.00 0.65 0.65 54 1015.9
20260506222320 57 338 0.9 0.9 0.00 0.65 0.65 54 1015.9
20260506221818 58 32 0.9 0.9 0.00 0.65 0.65 56 1015.9
20260506221315 57 43 0.0 0.9 0.00 0.65 0.65 58 1016.1
20260506220813 57 349 0.0 0.9 0.00 0.65 0.65 55 1016.0
20260506220314 57 312 0.0 1.7 0.00 0.65 0.65 55 1016.1
20260506215810 58 38 0.0 0.9 0.00 0.65 0.65 55 1016.2
20260506215307 58 19 0.0 0.9 0.00 0.65 0.65 55 1016.1
20260506214803 58 5 0.9 0.9 0.00 0.65 0.65 54 1016.0
20260506214300 58 14 0.9 1.7 0.00 0.65 0.65 55 1015.9
20260506213758 57 282 0.9 0.9 0.00 0.65 0.65 54 1016.1
20260506213254 58 353 0.9 1.7 0.00 0.65 0.65 56 1015.9
20260506212752 57 268 0.0 0.9 0.00 0.65 0.65 53 1016.0
20260506212247 58 282 0.0 1.7 0.00 0.65 0.65 53 1015.9
20260506211743 58 334 0.9 0.9 0.00 0.65 0.65 53 1016.0
20260506211239 58 261 0.0 1.7 0.00 0.65 0.65 54 1015.9
20260506210736 58 270 0.9 1.7 0.00 0.65 0.65 52 1015.9
20260506210233 58 307 0.0 1.7 0.00 0.65 0.65 55 1015.6
20260506205731 58 349 0.9 0.9 0.00 0.65 0.65 52 1015.5
20260506205226 58 37 0.0 1.7 0.00 0.65 0.65 54 1015.4
20260506204723 58 291 0.0 1.7 0.00 0.65 0.65 53 1015.6
20260506204220 58 327 0.0 0.9 0.00 0.65 0.65 53 1015.8
20260506203719 58 19 0.0 0.9 0.00 0.65 0.65 55 1015.7
20260506203215 58 315 0.9 1.7 0.00 0.65 0.65 55 1015.5
20260506202713 58 308 0.9 1.7 0.00 0.65 0.65 53 1015.7
20260506202209 58 270 2.6 2.6 0.00 0.65 0.65 52 1015.8
20260506201706 58 53 0.0 0.9 0.00 0.65 0.65 54 1015.7
20260506201203 58 5 0.0 0.0 0.00 0.65 0.65 53 1015.6
20260506200659 58 355 0.9 0.9 0.00 0.65 0.65 50 1015.8
20260506200156 57 289 0.0 1.7 0.00 0.65 0.65 50 1015.7
20260506195653 57 302 0.0 0.9 0.00 0.65 0.65 50 1015.8
20260506195149 58 275 0.9 1.7 0.00 0.65 0.65 52 1015.7
20260506194647 58 260 0.9 0.9 0.00 0.65 0.65 50 1015.6
20260506194143 58 310 0.0 1.7 0.00 0.65 0.65 54 1015.6
20260506193641 58 49 0.0 0.9 0.00 0.65 0.65 53 1015.4
20260506193138 59 37 1.7 1.7 0.00 0.65 0.65 52 1015.5
20260506192634 60 287 0.9 1.7 0.00 0.65 0.65 49 1015.6
20260506192130 60 357 0.0 0.9 0.00 0.65 0.65 53 1015.2
20260506191627 59 59 0.0 1.7 0.00 0.65 0.65 53 1015.4
20260506191123 59 348 0.9 1.7 0.00 0.65 0.65 56 1015.2
20260506190621 59 311 0.0 2.6 0.00 0.65 0.65 53 1015.3
20260506190118 59 59 0.9 2.6 0.00 0.65 0.65 54 1015.3
20260506185615 59 328 0.9 1.7 0.00 0.65 0.65 50 1015.3
20260506185111 59 38 0.0 0.9 0.00 0.65 0.65 52 1015.3
20260506184609 59 5 0.9 1.7 0.00 0.65 0.65 54 1015.2
20260506184106 59 353 2.6 2.6 0.00 0.65 0.65 51 1015.3
20260506183602 59 17 0.0 1.7 0.00 0.65 0.65 51 1015.2
20260506183058 60 47 0.0 2.6 0.00 0.65 0.65 52 1015.1
20260506182556 60 38 0.0 1.7 0.00 0.65 0.65 48 1015.1
20260506182053 59 78 0.0 1.7 0.00 0.65 0.65 52 1015.3
20260506181551 59 356 0.9 1.7 0.00 0.65 0.65 52 1015.2
20260506181047 60 355 1.7 1.7 0.00 0.65 0.65 50 1015.1
20260506180544 60 27 0.9 1.7 0.00 0.65 0.65 53 1015.4
20260506180040 60 18 0.9 1.7 0.00 0.65 0.65 51 1015.4
20260506175537 60 38 0.9 1.7 0.00 0.65 0.65 54 1015.3
20260506175033 60 30 0.0 0.9 0.00 0.65 0.65 54 1015.4
20260506174532 59 339 0.9 1.7 0.00 0.65 0.65 49 1015.6
20260506174028 59 54 0.0 1.7 0.00 0.65 0.65 52 1015.6
20260506173526 59 347 2.6 2.6 0.00 0.65 0.65 52 1015.6
20260506173022 59 341 0.9 4.3 0.00 0.65 0.65 55 1015.6
20260506172520 59 67 0.9 2.6 0.00 0.65 0.65 51 1015.7
20260506172016 59 89 0.9 1.7 0.00 0.65 0.65 53 1015.6
20260506171513 58 31 0.0 2.6 0.00 0.65 0.65 57 1015.6
20260506171010 58 53 0.0 2.6 0.00 0.65 0.65 56 1015.9
20260506170507 57 15 0.9 2.6 0.00 0.65 0.65 55 1015.8
20260506170000 58 95 0.9 1.7 0.00 0.65 0.65 56 1015.8
20260506165458 58 29 0.0 2.6 0.00 0.65 0.65 59 1016.0
20260506164954 57 311 0.0 2.6 0.00 0.65 0.65 59 1015.9
20260506164450 57 355 0.0 0.9 0.00 0.65 0.65 60 1015.9
20260506163948 57 46 0.9 2.6 0.00 0.65 0.65 61 1015.8
20260506163443 56 34 0.0 0.9 0.00 0.65 0.65 60 1015.8
20260506162938 57 5 0.9 1.7 0.00 0.65 0.65 59 1015.9
20260506162436 56 291 0.0 2.6 0.00 0.65 0.65 60 1015.9
20260506161933 57 20 0.9 0.9 0.00 0.65 0.65 61 1015.8
20260506161431 57 52 0.9 2.6 0.00 0.65 0.65 59 1016.0
20260506160928 56 50 0.0 0.9 0.00 0.65 0.65 61 1015.7
20260506160425 56 41 0.0 1.7 0.00 0.65 0.65 61 1015.7
20260506155923 55 234 1.7 2.6 0.00 0.65 0.65 63 1015.7
20260506155421 55 289 0.9 1.7 0.00 0.65 0.65 65 1015.9
20260506153542 55 291 0.0 0.9 0.00 0.65 0.65 64 1015.5
20260506153039 55 17 0.0 0.9 0.00 0.65 0.65 63 1015.7
20260506152536 55 215 0.0 0.9 0.00 0.65 0.65 66 1015.7
20260506152034 55 51 0.0 0.9 0.00 0.65 0.65 66 1016.1
20260506151532 54 40 0.0 0.9 0.00 0.65 0.65 66 1016.0
20260506151029 54 49 0.9 1.7 0.00 0.65 0.65 66 1015.7
20260506150525 53 4 1.7 4.3 0.00 0.65 0.65 68 1015.2
20260506150022 53 114 0.9 1.7 0.00 0.65 0.65 66 1015.2
20260506145519 53 28 0.0 0.9 0.00 0.65 0.65 70 1015.2